Lapse_Rate
5.0 5.2 5.4 5.1 4.6 4.4 4.2 4.0 4.2 4.2 4.5 4.7 4.8 5.0 5.1 5.3 5.2 5.0 4.9 4.7 4.7 4.7 4.7 4.7 4.8 4.8 4.8 4.7 4.6 4.6 4.7 4.8 4.8 4.8 4.7 4.8 4.7 4.7 4.7 4.8 4.9 5.0 5.2 4.3 4.6 4.9 5.0 4.6 4.6 4.9 4.9 5.0 5.2 5.4
4.4 4.8 4.9 5.3 5.6 5.4 5.2 4.7 4.4 4.7 4.4 4.6 4.9 4.6 5.1 5.0 5.1 5.3 5.1 4.8 4.8 4.8 4.9 5.0 4.8 4.8 4.8 4.7 4.6 5.0 5.0 5.0 5.1 5.2 5.3 5.0 4.9 4.6 4.8 4.4 4.8 4.7 5.0 5.2 5.2 5.2 5.5 5.6 5.4 5.3 5.2 5.2 5.2 5.1
4.7 4.3 4.2 4.5 4.9 4.8 5.8 5.8 5.6 5.1 5.0 4.9 4.6 4.7 5.3 5.0 5.4 5.3 5.1 5.2 5.2 5.3 5.3 5.3 5.1 5.2 5.2 5.3 5.5 5.4 5.6 5.4 5.2 5.1 5.0 4.9 4.6 4.5 4.5 4.5 4.8 4.8 5.1 4.8 4.8 5.0 5.5 5.4 5.7 5.7 5.4 5.4 5.3 5.3
5.9 6.1 5.9 5.4 5.2 4.7 4.6 4.7 5.0 5.3 5.9 5.6 5.3 5.2 5.1 4.9 5.3 5.3 5.1 5.4 5.4 5.5 5.4 5.4 5.4 5.4 5.6 5.8 5.9 5.8 5.8 5.5 5.5 5.4 5.1 4.8 4.8 4.8 4.7 4.8 4.8 5.5 5.2 5.1 4.9 5.4 5.4 5.7 5.7 5.6 5.3 5.2 5.2 5.1
6.2 6.4 6.5 6.6 6.8 7.1 6.9 6.5 6.2 5.4 4.9 5.1 5.4 5.7 5.9 5.8 5.4 5.2 5.3 5.8 5.9 5.9 5.9 5.9 5.7 5.6 5.7 5.8 5.8 5.8 5.8 5.6 5.5 5.3 5.3 5.1 5.1 5.2 5.0 5.0 5.4 6.2 5.7 5.3 5.0 5.4 5.1 5.5 5.5 5.2 4.9 5.0 5.0 5.0
6.0 6.2 6.3 6.7 6.7 6.8 7.2 7.1 7.0 7.2 7.3 6.5 5.7 6.0 6.0 5.6 5.9 5.7 5.7 5.8 5.9 5.8 5.8 5.8 5.8 5.7 5.7 5.7 5.8 5.8 5.7 5.8 5.6 5.7 5.7 5.6 5.9 5.7 5.5 5.3 6.0 6.5 5.5 5.6 5.8 5.6 5.5 5.7 5.4 5.4 5.2 5.3 5.4 5.4
6.4 6.3 6.4 6.5 6.5 6.6 6.8 7.0 6.8 7.2 7.4 7.4 7.5 7.3 6.9 6.3 6.2 5.9 5.8 5.6 5.5 5.4 5.5 5.5 5.6 5.9 5.7 5.8 5.8 5.8 5.7 5.7 5.7 5.6 5.7 6.1 6.2 5.9 5.8 5.9 6.8 6.1 5.9 6.1 6.1 5.8 5.7 5.5 5.4 5.5 5.6 5.7 5.7 5.7
6.7 6.6 6.5 6.5 6.7 6.8 6.9 6.9 6.8 6.8 7.1 7.3 7.6 7.4 7.1 6.8 6.8 6.7 6.4 6.1 5.9 5.7 5.4 5.4 5.4 5.5 5.7 5.9 5.7 5.9 5.9 6.1 6.0 5.9 6.1 6.2 6.0 6.1 6.0 6.9 6.2 6.5 6.4 6.4 6.4 6.3 6.2 6.0 5.8 5.8 6.0 6.0 6.2 6.3
7.3 7.1 6.9 6.7 6.7 6.8 6.9 7.0 6.9 6.8 7.0 7.2 7.4 7.7 7.5 7.2 6.8 6.8 6.8 6.6 6.4 6.2 6.1 6.3 6.4 6.3 6.3 6.3 6.2 6.1 6.1 6.0 6.0 6.0 6.1 6.1 6.1 6.4 6.9 6.6 6.8 6.7 6.7 6.7 6.7 6.9 6.6 6.3 6.2 6.1 6.3 6.4 6.7 6.8
7.9 7.5 7.2 7.1 6.9 6.9 6.9 7.0 7.2 7.1 7.1 7.3 7.6 7.5 7.5 7.4 7.1 7.0 6.9 6.8 6.8 7.2 7.2 7.2 6.9 6.9 6.6 6.7 6.3 6.2 6.2 6.2 6.0 6.1 6.4 6.4 6.6 7.4 7.1 7.2 7.0 7.0 7.2 7.2 7.1 6.8 6.7 6.5 6.7 6.8 6.7 7.0 6.9 6.8
8.2 8.0 7.7 7.4 7.3 7.2 7.1 7.1 7.2 7.2 7.3 7.2 7.4 7.7 7.8 7.7 7.5 7.3 7.2 7.2 7.2 7.2 7.0 7.0 6.6 6.6 6.4 6.4 6.3 6.3 6.3 6.3 6.3 6.3 6.5 6.4 7.2 7.8 7.7 7.5 7.5 7.3 7.2 7.3 7.1 7.1 7.1 7.0 7.1 6.9 7.0 7.0 6.9 6.7
8.3 8.2 8.0 8.0 7.7 7.6 7.5 7.4 7.4 7.5 8.2 8.1 7.9 8.2 7.9 7.9 7.6 7.5 7.4 7.5 8.0 7.5 7.6 7.4 7.1 6.5 6.4 6.4 6.4 6.4 6.5 6.6 6.5 6.5 6.7 7.3 8.9 8.1 8.0 8.0 7.9 7.5 7.3 7.3 7.4 7.4 7.4 7.4 7.4 7.1 7.0 6.9 6.7 6.5
8.3 8.2 8.1 8.1 8.2 8.0 7.8 7.7 7.7 7.6 7.6 7.4 7.4 7.9 7.9 7.8 7.9 8.0 7.9 8.6 8.6 8.3 8.1 7.7 7.3 7.1 6.6 6.4 6.5 6.6 6.9 6.8 7.2 7.3 7.8 8.8 8.6 8.5 8.5 8.2 8.0 7.7 7.5 7.5 7.6 7.6 7.4 7.3 7.3 7.2 7.0 6.9 6.5 6.6
8.5 8.3 8.4 8.1 8.1 8.0 8.0 8.2 8.0 7.7 7.5 7.5 7.6 7.8 7.8 7.8 8.3 8.3 8.6 8.9 8.4 8.2 7.8 7.7 7.4 7.0 6.9 6.8 7.3 7.6 7.6 7.7 7.9 8.0 8.7 8.8 8.6 8.4 8.2 7.9 7.7 7.5 7.5 7.5 7.5 7.4 7.3 7.4 7.3 7.3 7.2 7.0 6.7 6.7
8.5 8.4 8.3 8.3 8.2 8.1 8.2 8.2 8.2 7.9 7.6 7.6 8.0 8.0 8.0 8.1 8.4 8.9 8.9 8.7 8.4 8.2 7.9 7.7 7.2 7.3 7.5 7.5 7.7 7.9 8.1 8.1 8.2 8.9 8.9 8.5 8.4 8.1 8.0 7.8 7.7 7.6 7.6 7.4 7.3 7.3 7.3 7.3 7.1 7.1 7.1 6.9 6.6 6.6
8.5 8.3 8.4 8.4 8.4 8.1 8.2 8.5 8.3 8.2 7.9 8.0 8.1 8.1 8.4 8.4 8.4 8.3 8.6 8.5 8.4 8.1 7.8 7.5 7.3 7.5 7.7 7.8 7.9 8.2 8.2 8.6 8.9 8.8 8.5 8.3 8.3 8.1 8.1 7.9 7.7 7.8 7.5 7.3 7.3 7.3 7.3 7.1 6.9 6.8 6.8 6.7 6.7 6.6
8.3 8.5 8.5 8.4 8.4 8.1 8.2 8.5 8.4 8.2 8.1 8.0 8.0 8.1 8.4 8.7 8.3 8.1 8.3 8.4 8.3 8.2 7.9 7.6 7.6 8.1 8.2 8.1 8.0 8.2 8.7 8.9 8.8 8.5 8.4 8.3 8.0 8.2 8.1 7.8 7.9 7.6 7.4 7.3 7.3 7.3 7.0 6.8 6.7 6.6 6.7 6.8 6.9 6.8
8.8 8.6 8.5 8.4 8.3 8.3 8.2 8.3 8.3 8.3 8.3 8.3 8.2 8.3 8.4 8.7 8.4 8.2 8.3 8.3 8.3 8.3 8.1 7.8 8.0 8.2 8.3 8.3 8.7 8.9 8.8 8.7 8.5 8.3 8.2 8.1 8.2 8.4 8.0 7.8 7.7 7.4 7.2 7.3 7.3 7.2 7.0 6.8 6.7 6.6 6.7 6.7 6.8 6.6
8.7 8.5 8.3 8.1 8.3 8.3 8.2 8.3 8.3 8.1 8.3 8.4 8.3 8.4 8.3 8.4 8.2 8.1 8.1 8.1 8.1 8.0 8.0 8.0 7.9 8.4 8.7 8.9 8.9 8.8 8.7 8.5 8.2 8.2 8.4 8.6 8.6 8.2 7.8 7.8 7.5 7.2 7.2 7.2 7.2 7.0 6.8 6.7 6.4 6.4 6.4 6.3 6.3 6.4
8.4 8.4 8.4 8.5 8.3 8.3 8.2 8.1 8.2 8.2 8.1 8.3 8.5 8.6 8.5 8.4 8.4 8.0 8.1 8.2 8.0 7.9 7.5 7.9 8.6 8.8 8.7 8.6 8.5 8.4 8.3 8.1 8.2 8.4 8.7 8.6 8.3 7.8 7.8 7.4 7.1 7.0 7.1 7.1 7.1 6.9 6.7 6.5 6.3 6.3 6.4 6.3 6.4 6.4
8.4 8.4 8.6 8.6 8.3 8.3 8.0 8.1 8.3 8.3 8.3 8.3 8.5 8.7 8.7 8.7 8.6 8.1 8.0 8.1 7.9 8.2 8.3 8.6 8.8 8.6 8.4 8.3 8.2 8.0 8.0 8.3 8.6 8.4 8.2 8.0 7.7 7.5 7.2 6.9 7.0 7.1 7.0 6.9 6.7 6.6 6.4 6.3 6.3 6.3 6.3 6.3 6.2 6.1
8.3 8.3 8.4 8.4 8.2 8.3 8.2 8.1 8.0 8.1 8.3 8.4 8.5 8.7 8.6 8.7 8.5 8.1 7.9 8.0 8.4 8.6 8.5 8.9 8.8 8.3 8.2 8.2 8.0 8.0 8.3 8.5 8.4 8.3 8.0 7.6 7.3 7.0 7.1 7.1 7.0 7.0 6.9 6.6 6.4 6.4 6.3 6.2 6.1 6.2 6.2 6.1 6.0 5.9
8.4 8.3 8.2 8.2 8.1 8.1 8.2 8.1 8.1 8.1 8.3 8.3 8.2 8.2 8.4 8.4 8.3 8.0 7.7 8.0 8.4 8.1 8.2 8.3 8.1 8.0 8.0 8.1 8.2 8.4 8.4 8.4 8.2 8.0 7.6 7.3 7.3 7.2 7.1 7.0 6.9 6.6 6.7 6.6 6.5 6.3 6.2 6.1 6.2 6.2 6.2 6.2 6.3 6.3
8.4 8.4 8.3 8.3 8.4 8.4 8.5 8.4 8.4 8.4 8.2 8.0 8.1 7.7 7.8 8.1 8.1 7.9 8.1 8.5 8.6 8.3 8.1 8.0 7.7 7.8 8.0 8.1 8.3 8.3 8.1 8.0 7.9 7.8 7.4 7.2 7.3 7.2 7.0 6.8 6.5 6.4 6.4 6.4 6.4 6.4 6.5 6.6 6.6 6.6 6.5 6.3 6.3 6.6
8.4 8.5 8.4 8.5 8.4 8.3 8.3 8.3 8.4 8.3 8.2 8.1 7.8 7.7 7.8 7.7 7.7 7.9 8.0 8.3 8.2 8.0 7.8 7.6 7.7 7.9 8.0 8.1 8.1 7.9 7.9 7.9 7.8 7.6 7.3 7.2 7.1 7.0 6.9 6.8 6.6 6.5 6.6 6.6 6.7 6.8 6.8 6.9 6.8 6.6 6.5 6.4 6.3 6.4
8.5 8.6 8.6 8.6 8.4 8.2 8.0 8.1 8.3 8.3 8.2 8.3 8.1 7.8 7.8 7.8 7.8 7.8 7.8 7.9 8.1 7.9 7.7 7.6 7.6 7.8 7.8 8.0 8.1 8.0 8.0 7.8 7.6 7.4 7.1 6.9 6.8 6.9 6.8 6.9 6.9 6.7 6.6 6.6 6.9 7.0 7.0 6.8 6.3 6.2 6.2 6.2 6.2 6.0
8.6 8.7 8.7 8.6 8.4 8.1 7.9 7.9 8.1 8.2 8.2 8.1 8.2 8.2 8.0 8.1 8.1 7.9 7.9 7.8 7.7 7.5 7.6 7.7 7.9 8.0 7.9 7.9 7.9 7.9 7.7 7.4 7.2 7.1 6.8 6.6 6.7 6.6 6.6 6.6 6.6 6.6 6.6 6.9 7.0 7.2 6.8 6.2 6.1 6.1 6.0 5.9 5.7 5.7
8.6 8.6 8.6 8.5 8.4 8.3 8.2 8.1 8.2 8.4 8.4 8.3 8.2 8.2 8.2 8.3 8.3 8.2 7.8 7.8 7.8 7.9 7.8 7.9 7.8 7.8 7.9 7.8 7.8 7.5 7.2 7.2 7.1 6.8 6.5 6.2 6.3 6.3 6.1 6.2 6.4 6.6 6.9 7.2 7.2 7.1 6.8 6.7 6.6 6.3 6.0 6.0 6.1 6.1
8.5 8.5 8.5 8.5 8.6 8.6 8.6 8.5 8.5 8.5 8.4 8.5 8.5 8.3 8.2 8.0 7.9 7.9 7.8 7.7 7.8 7.8 7.9 7.9 7.9 7.7 7.7 7.5 7.2 7.2 7.1 7.1 7.0 6.8 6.6 6.8 6.7 6.5 6.4 6.5 6.6 6.7 7.0 7.2 7.3 7.1 7.0 6.8 6.4 6.3 6.3 6.3 6.3 6.3
7.9 8.0 8.2 8.3 8.4 8.5 8.6 8.6 8.6 8.6 8.6 8.6 8.8 8.7 8.3 8.0 7.8 7.7 7.6 7.7 8.0 8.2 8.2 7.9 7.6 7.3 7.0 6.9 7.0 7.0 6.9 6.8 6.8 6.7 6.8 6.8 6.7 6.6 6.6 6.6 6.6 6.8 7.0 7.3 7.5 7.2 6.9 6.5 6.4 6.5 6.4 6.4 6.4 6.3
8.0 7.7 7.7 7.9 8.0 8.0 8.0 8.1 8.2 8.2 8.3 8.2 8.1 7.9 7.7 7.6 7.6 7.7 7.8 8.0 8.2 8.2 8.1 7.8 7.5 7.3 7.2 7.2 7.1 7.0 6.6 6.7 6.5 6.6 6.6 6.5 6.5 6.4 6.4 6.6 6.9 7.0 7.2 7.2 7.2 6.9 6.7 6.5 6.5 6.4 6.3 6.2 6.1 6.0
8.1 7.9 7.6 7.5 7.4 7.3 7.3 7.4 7.5 7.4 7.5 7.5 7.5 7.5 7.6 7.7 7.9 8.0 8.3 8.4 8.2 8.0 7.9 7.6 7.4 7.2 7.1 7.0 7.0 7.0 6.7 6.6 6.6 6.6 6.5 6.5 6.5 6.5 6.5 6.7 6.8 7.0 7.1 6.9 6.8 6.5 6.4 6.3 6.2 6.2 6.1 6.1 6.1 6.1
7.8 7.8 7.6 7.5 7.3 7.2 7.2 7.3 7.4 7.5 7.6 7.9 8.1 8.1 8.1 8.2 8.2 8.3 8.3 8.2 8.0 7.8 7.6 7.4 7.3 7.1 7.0 6.9 6.8 6.7 6.4 6.3 6.4 6.4 6.3 6.3 6.4 6.4 6.4 6.5 6.7 6.7 6.8 6.8 6.5 6.4 6.4 6.3 6.2 6.0 6.0 6.1 6.1 6.1
Wind_Speed
16 16 15 13 17 17 20 21 10 17 22 19 17 14 9 5 5 1 1 1 1 1 1 3 3 4 2 2 3 4 3 2 2 5 4 3 4 3 2 1 3 6 6 5 6 6 11 3 1 2 7 10 11 11
14 16 18 16 12 20 11 15 18 22 20 16 14 12 13 8 7 1 1 1 2 1 1 2 2 2 2 1 3 2 1 2 3 3 2 3 3 3 3 3 2 4 4 2 6 3 1 1 5 6 9 10 10 9
14 14 15 18 14 13 21 3 9 15 17 14 12 13 10 9 7 6 2 0 1 2 1 1 2 0 0 1 1 3 1 3 3 2 2 2 3 4 5 5 3 4 2 4 4 2 9 8 12 8 9 14 13 11
15 14 14 14 17 6 12 17 6 14 15 14 13 12 9 6 5 5 2 1 2 1 1 2 0 2 2 0 1 2 5 5 5 1 2 2 2 3 2 1 3 0 2 4 8 11 13 14 8 13 16 15 15 15
13 14 14 13 13 15 8 11 9 14 18 15 13 12 11 11 9 9 4 1 2 1 1 2 1 2 3 1 5 6 9 5 2 2 2 2 2 3 2 1 3 5 6 4 7 10 12 17 14 15 16 17 16 16
14 12 13 14 12 12 13 13 10 5 9 15 16 14 14 13 13 2 1 1 2 1 2 2 2 1 4 4 6 7 4 3 2 3 2 1 0 2 3 3 7 9 6 9 10 7 11 16 17 18 16 17 16 14
15 15 12 13 13 12 12 13 12 11 12 13 13 16 17 14 4 1 0 2 6 1 1 1 2 1 1 3 2 2 3 2 1 2 2 1 2 3 1 3 7 9 11 11 11 10 12 13 10 14 15 17 16 16
16 14 14 11 11 11 12 12 13 15 15 19 17 16 18 13 9 2 3 5 4 3 2 1 1 2 2 2 3 1 2 1 2 2 1 2 2 1 5 13 10 9 9 11 12 7 13 16 14 15 14 12 14 17
17 15 13 12 11 11 11 10 12 13 3 12 14 16 7 3 2 2 4 6 6 1 2 2 3 3 0 2 2 2 0 2 2 2 2 3 3 5 10 10 9 8 4 10 11 11 12 13 16 17 16 16 17 18
17 16 14 13 11 10 10 11 10 5 14 22 6 2 2 1 9 4 4 1 3 2 2 1 1 3 1 1 2 2 1 2 3 2 2 3 4 12 12 12 10 8 6 5 6 14 16 17 16 20 20 18 17 18
18 17 15 14 12 11 9 9 9 6 16 2 2 2 2 8 2 3 2 1 1 1 2 0 3 2 1 2 3 2 2 1 2 2 2 2 4 5 4 7 7 6 7 7 9 13 15 16 17 17 18 19 17 19
18 16 15 13 12 10 8 7 3 5 1 4 3 5 2 2 3 3 1 1 3 3 3 3 2 0 2 1 3 2 2 0 1 1 1 3 5 6 5 7 7 6 8 12 13 16 17 17 17 16 17 17 17 18
17 15 14 14 13 12 10 4 7 22 14 3 2 3 1 2 3 7 6 3 3 4 5 4 3 2 2 2 4 2 2 2 2 2 3 5 4 5 5 4 9 10 11 14 17 16 16 18 17 16 17 17 18 16
13 14 12 12 12 12 13 9 23 12 3 2 3 4 3 3 5 5 5 4 3 3 7 5 3 1 2 2 2 3 2 2 1 3 5 3 6 7 5 5 6 13 16 16 17 16 17 17 17 17 16 15 15 16
18 15 12 10 9 7 5 14 21 3 2 2 2 4 6 3 0 1 2 3 3 6 7 4 3 1 1 3 1 4 2 3 4 5 3 4 4 5 6 9 11 13 13 13 15 15 17 17 16 17 16 15 15 16
16 10 7 11 9 6 12 17 4 1 1 3 3 2 1 1 1 2 4 3 4 7 3 3 2 2 1 3 3 5 5 6 4 4 5 3 5 6 9 11 12 13 13 14 14 16 17 17 16 17 17 16 15 15
12 3 10 10 10 7 19 2 2 3 3 3 3 1 3 2 3 4 4 4 6 7 3 3 4 4 4 2 2 5 6 5 6 5 5 5 8 10 11 12 13 12 13 15 15 16 16 16 15 15 16 15 13 11
5 8 12 13 10 8 1 1 3 3 5 2 2 3 3 2 1 2 4 6 5 4 5 3 5 3 5 6 4 5 7 7 5 7 7 8 10 11 10 12 12 13 14 15 14 15 15 14 14 11 13 8 11 10
7 12 14 15 8 4 3 2 2 4 5 2 1 2 2 1 3 2 5 8 2 3 6 3 2 4 5 5 6 4 3 3 5 7 6 9 11 11 13 12 11 12 12 14 14 11 11 13 11 7 8 8 8 8
16 16 14 16 6 2 2 1 1 2 3 2 1 2 2 1 2 4 6 6 4 2 2 3 5 4 4 3 3 3 3 4 4 7 9 8 8 9 10 9 9 12 12 13 11 15 9 8 7 8 8 9 9 9
8 4 10 8 2 3 3 2 1 2 2 2 1 2 1 0 3 3 4 5 3 3 4 5 7 8 3 3 3 2 4 4 7 7 10 10 9 8 8 8 8 8 9 9 8 9 11 9 9 8 8 8 9 9
3 9 3 4 2 1 2 2 0 1 2 1 2 0 1 2 2 3 4 2 3 5 3 5 5 2 3 3 3 4 6 7 7 8 13 10 7 8 8 7 8 8 8 8 7 8 9 8 8 8 8 9 10 9
8 3 3 2 3 3 1 1 1 1 1 2 1 1 1 0 1 2 3 3 3 2 3 3 2 1 3 3 3 5 5 5 6 6 6 7 7 7 7 7 7 7 8 7 7 7 7 13 11 10 8 9 8 8
6 3 3 2 3 1 2 3 2 2 2 1 0 1 0 1 3 0 3 2 3 1 1 1 1 2 2 2 2 3 2 2 5 6 5 6 7 7 7 7 7 7 7 7 7 7 7 8 13 8 8 9 9 8
4 4 3 2 1 3 3 2 2 2 1 1 2 2 1 2 1 2 3 3 2 2 1 1 1 3 3 3 3 3 3 3 4 7 7 6 6 6 6 6 7 7 6 6 7 9 9 8 8 9 10 9 10 10
2 2 2 3 1 2 3 3 3 3 1 1 2 0 1 1 1 4 3 2 2 2 3 3 3 1 3 3 3 4 3 2 4 5 5 3 5 5 6 7 7 7 6 6 9 10 11 9 9 12 10 12 14 10
1 3 0 1 2 3 2 2 2 2 3 4 3 2 2 1 3 3 2 2 1 1 1 1 1 1 2 3 3 3 4 4 3 5 7 6 6 4 4 5 9 8 9 10 10 10 11 11 11 11 10 9 8 7
2 2 3 2 1 1 3 2 3 4 3 3 4 3 6 6 3 2 2 2 1 1 2 2 2 2 2 3 3 4 3 3 5 5 4 3 3 3 3 5 7 19 11 9 10 9 9 9 10 11 10 9 7 3
0 0 3 1 0 1 4 5 4 2 3 4 4 3 3 2 2 3 3 2 2 2 3 3 3 4 3 3 2 3 2 2 7 11 13 8 8 3 7 8 8 8 8 8 16 15 13 10 9 8 9 6 2 1
1 1 2 2 2 3 3 2 1 1 1 0 1 2 1 2 3 3 3 4 3 3 2 1 2 3 4 4 5 6 1 0 0 4 7 8 8 10 10 10 10 9 7 7 8 9 14 10 9 5 5 3 1 3
1 2 2 1 3 2 2 2 2 1 2 2 2 2 2 0 1 3 3 2 2 2 1 3 3 3 4 5 4 5 4 1 4 7 6 7 9 10 10 10 8 6 7 8 8 7 8 8 6 6 6 4 2 5
1 2 2 2 3 2 3 3 1 2 3 2 2 2 2 2 2 3 4 3 3 5 7 6 5 5 5 4 3 3 8 6 8 8 10 8 9 10 10 6 6 7 7 8 7 7 7 7 6 6 5 2 3 5
1 1 1 2 3 3 2 2 4 4 2 2 2 0 0 1 2 1 2 2 1 2 5 6 6 6 6 6 5 4 7 6 12 18 18 20 21 18 10 7 7 7 8 7 7 7 7 8 6 6 4 3 4 5
Wind_Direction
323 333 327 328 339 329 334 321 255 178 154 154 151 134 115 50 55 26 76 302 232 197 199 205 179 148 136 183 181 132 148 178 143 193 198 191 217 187 225 177 188 187 180 200 224 249 266 73 163 287 342 317 308 304
323 319 332 329 340 354 344 38 107 133 141 147 149 165 136 164 126 202 256 311 309 128 53 333 322 331 18 86 143 158 353 148 155 136 182 144 177 182 198 224 175 226 229 218 226 247 61 245 291 295 288 292 297 288
326 324 321 335 334 334 339 273 159 153 149 155 169 149 146 127 109 156 129 298 71 71 14 287 238 134 73 234 323 168 193 136 157 23 133 123 213 178 191 222 208 204 179 247 313 257 289 298 303 306 286 306 298 282
315 324 327 326 340 329 328 336 280 173 167 166 167 167 157 132 117 111 108 108 72 59 218 115 84 78 353 204 181 43 122 99 104 91 111 157 205 204 227 19 239 295 159 237 263 284 293 282 281 300 293 293 288 284
305 310 318 322 327 339 323 296 316 337 190 184 179 178 174 146 123 93 82 127 150 238 197 113 56 19 356 123 116 130 134 122 130 126 141 187 149 170 110 176 230 192 208 218 277 297 280 283 289 292 286 285 283 283
293 300 308 317 318 325 330 339 330 303 301 200 186 192 167 149 139 123 110 246 207 232 151 188 59 54 40 107 112 118 95 90 104 143 163 186 128 197 198 230 251 220 223 243 263 272 284 286 291 289 281 278 277 274
285 287 293 305 318 319 326 326 338 320 317 191 198 176 164 153 107 115 126 136 156 112 113 141 170 57 65 109 80 92 39 73 81 132 185 174 172 184 232 240 240 229 234 249 258 281 285 277 279 292 287 284 279 276
275 279 284 290 302 313 319 323 320 323 308 181 184 180 155 129 114 78 18 81 77 90 49 133 162 206 182 150 120 24 118 110 45 109 131 184 138 190 249 243 265 260 267 276 277 266 255 279 287 276 275 279 282 281
267 270 272 274 284 296 307 312 316 319 22 170 150 101 73 41 112 112 89 96 66 55 152 178 187 199 132 85 105 118 166 131 35 182 217 177 168 224 231 245 260 244 234 286 299 298 287 276 279 277 277 287 289 286
263 261 264 267 270 282 298 316 317 291 131 117 80 98 106 122 113 109 23 85 17 1 66 244 72 157 180 145 101 125 359 110 168 128 131 227 253 260 253 242 256 264 268 272 296 306 305 298 292 288 284 287 289 286
254 255 256 259 260 269 283 299 310 182 129 89 123 102 108 114 69 37 83 126 230 283 197 142 206 135 90 139 118 3 134 85 178 132 228 237 261 245 261 235 224 225 241 261 264 277 285 285 285 287 287 285 286 285
249 249 248 247 251 250 255 280 338 91 42 80 90 90 95 87 74 109 183 255 218 231 169 170 177 69 110 72 112 37 108 149 192 77 212 253 251 267 272 253 252 265 282 292 290 288 291 290 287 284 282 284 285 287
240 239 241 237 237 235 233 240 142 131 129 81 66 90 240 92 125 178 186 218 224 191 171 159 154 148 132 85 78 110 121 172 128 184 230 242 264 265 274 259 269 281 285 288 290 289 289 288 286 284 287 288 291 292
240 240 232 245 240 225 214 166 152 142 103 113 146 164 206 190 231 193 183 170 182 155 149 135 126 143 120 100 127 127 99 174 196 240 235 247 247 259 259 254 271 289 297 296 292 292 291 290 290 292 291 291 293 293
225 228 232 233 239 241 186 168 159 75 116 160 172 202 206 213 289 245 131 131 153 148 134 116 102 183 110 109 59 114 131 238 228 232 233 240 251 262 278 282 285 288 296 292 293 294 294 296 295 296 298 297 295 296
224 228 220 222 217 223 159 171 83 90 89 143 180 181 171 143 196 229 195 147 155 149 107 77 119 101 111 119 139 206 162 224 238 215 235 256 261 271 274 284 285 291 292 291 294 297 297 296 297 298 300 298 298 298
210 201 195 204 207 192 140 109 112 162 178 204 255 308 189 256 198 169 171 171 163 159 157 132 149 185 110 106 227 191 215 224 227 236 243 245 273 284 288 289 288 290 293 295 299 298 297 299 300 299 297 301 308 312
191 194 200 207 197 130 61 144 132 161 220 186 202 183 200 273 149 154 169 150 156 181 140 184 129 178 195 187 222 223 229 248 255 267 275 273 272 281 282 279 284 291 294 296 295 295 297 301 300 298 303 320 313 313
176 181 206 203 140 114 139 165 164 210 218 185 200 215 202 246 228 102 162 161 83 118 117 122 187 202 215 216 232 242 247 248 274 288 280 279 276 277 280 283 286 290 291 298 301 300 299 296 301 315 315 318 308 310
204 195 183 154 110 106 124 183 109 147 204 222 132 178 208 191 147 141 162 148 124 141 173 201 223 219 210 216 195 233 239 246 271 289 295 295 291 285 278 286 293 299 300 301 297 302 305 309 319 316 313 309 312 311
86 128 162 131 89 86 137 154 230 206 155 185 236 189 173 294 155 160 152 147 180 210 221 222 242 258 210 222 228 255 258 241 262 266 285 292 294 292 291 295 293 294 298 303 303 311 320 313 313 308 300 308 315 308
92 84 73 18 81 28 82 60 33 142 101 91 140 118 132 176 140 124 137 176 223 232 200 238 256 266 265 263 257 225 256 264 271 276 283 285 284 296 300 300 305 299 301 302 306 311 310 312 309 315 319 311 317 310
96 74 68 53 81 30 167 347 146 15 118 155 153 164 81 17 337 327 214 227 258 235 228 240 285 7 268 278 266 265 257 265 270 280 299 296 298 297 297 299 300 299 300 304 312 307 307 310 316 316 316 313 310 309
46 56 79 80 71 232 30 20 33 66 57 88 211 181 118 9 328 268 255 267 250 298 225 235 5 325 313 311 261 277 298 255 301 298 295 298 298 302 309 305 306 302 302 306 304 305 309 307 312 309 305 305 307 307
73 324 89 1 10 85 46 18 20 41 139 200 140 161 177 312 182 240 235 268 267 260 280 321 218 212 227 273 282 286 349 325 309 301 306 293 295 307 308 305 305 310 311 306 314 312 307 305 304 304 304 302 299 297
105 294 136 193 226 131 167 149 205 200 147 146 199 38 342 140 182 246 230 238 236 212 184 176 175 217 254 236 290 311 313 329 304 281 300 337 315 302 305 314 317 319 329 320 310 307 307 307 302 300 298 297 305 313
173 252 229 335 90 111 91 45 64 134 169 206 182 158 109 106 250 254 272 240 230 255 285 319 290 307 293 304 309 318 321 305 277 283 290 291 288 282 284 299 310 308 314 308 306 304 299 301 303 302 299 297 289 278
216 161 166 203 128 355 148 160 178 208 210 172 132 178 174 198 228 253 236 359 310 4 50 44 39 14 339 305 297 302 304 327 302 293 283 277 279 285 286 297 298 302 305 301 301 303 298 300 300 297 299 301 300 281
216 256 106 69 45 216 215 195 214 223 144 164 170 208 238 228 323 342 351 343 337 7 36 46 10 0 300 293 250 302 336 359 10 353 349 335 335 330 333 312 304 301 301 301 306 318 316 313 315 310 302 301 330 60
231 65 100 175 210 235 247 169 220 287 300 197 314 337 343 45 10 347 355 10 39 49 18 344 304 330 358 357 334 342 351 23 45 7 328 316 313 308 306 304 304 303 304 318 317 314 324 331 327 333 334 325 286 130
85 85 74 151 239 252 263 308 305 355 33 22 351 164 224 300 29 25 18 358 347 343 12 357 333 2 7 351 346 337 333 358 326 308 289 295 291 290 290 293 301 323 319 315 314 316 319 324 327 325 331 346 84 125
129 192 191 247 280 293 17 44 30 47 342 22 337 341 336 61 65 0 359 342 21 22 354 351 347 335 326 298 285 271 283 298 314 317 303 303 305 310 305 322 326 319 314 314 313 311 315 319 319 328 335 90 104 119
44 39 334 316 318 335 328 63 26 349 22 27 343 326 133 93 136 326 325 24 9 348 341 319 303 296 288 285 287 295 322 309 312 328 329 332 335 331 341 336 324 319 317 313 310 312 318 324 329 335 347 103 119 125